RH
7 8 7 7 7 7 7 7 6 6 11 18 32 68 54 70 72 74 76 84 79 70 86 80 74 70 68 56 44 25 14 13 16 19 21 23 24 27 32 38 47 51 50
10 10 10 10 10 10 10 9 8 8 8 7 8 12 24 66 57 78 76 85 79 76 77 91 85 81 76 74 62 50 32 17 14 16 20 22 23 24 26 33 39 47 53
11 11 11 11 11 11 11 10 10 9 9 9 9 8 9 12 32 55 79 78 75 71 65 80 92 90 87 82 79 70 57 43 24 15 16 19 22 24 24 27 33 40 50
11 10 10 12 13 14 14 15 15 14 13 11 10 9 9 8 9 13 25 50 66 65 73 75 84 96 96 94 90 85 78 67 51 58 31 16 18 22 24 24 28 34 43
15 18 22 26 27 28 29 28 28 29 30 29 27 20 14 11 9 8 9 16 39 44 56 76 64 79 85 99 100 98 92 87 76 56 80 70 18 18 22 25 26 28 37
27 26 27 24 20 20 24 33 30 30 26 22 28 31 33 32 24 15 10 9 9 14 33 51 63 71 73 82 97 100 99 100 95 86 62 74 78 27 18 20 25 26 28
24 22 14 23 27 28 28 32 31 28 30 33 26 23 27 35 37 38 34 22 16 12 11 15 64 70 71 71 84 99 100 100 100 93 92 78 65 81 52 18 21 25 26
18 16 23 28 26 30 31 27 24 20 16 19 42 43 34 30 33 39 43 45 42 35 25 16 13 13 20 25 40 57 98 99 90 98 99 87 83 68 70 72 25 21 26
15 18 24 14 26 18 23 31 28 24 19 17 20 40 48 52 48 45 46 49 49 48 46 43 34 30 54 23 15 24 37 77 99 96 98 99 90 96 84 81 76 35 22
11 21 21 16 23 25 14 33 31 23 24 28 29 29 34 49 56 47 53 58 59 59 62 62 58 65 75 69 64 59 52 32 63 89 100 99 95 98 99 88 73 79 49
19 16 18 16 11 10 9 26 35 29 24 31 43 44 41 48 56 54 48 40 47 54 64 73 80 77 65 73 88 88 61 62 62 53 73 94 92 90 99 97 92 84 82
13 13 11 11 11 10 9 12 36 36 33 28 29 39 50 56 59 60 59 58 56 52 52 46 41 45 56 46 58 76 89 78 74 66 58 69 74 98 71 96 98 98 98
8 10 10 11 12 13 12 10 18 30 38 40 35 30 31 36 40 41 45 39 31 23 21 22 26 32 36 38 37 35 42 81 91 78 67 59 53 61 78 100 97 90 96
10 11 11 12 13 14 14 13 11 11 17 34 50 50 44 36 26 23 22 24 26 23 18 18 19 20 22 23 23 25 27 32 51 89 84 69 49 52 65 76 84 96 89
10 11 12 12 13 14 15 15 14 12 12 12 16 38 54 55 46 34 28 28 26 25 29 29 30 30 28 27 27 32 34 26 29 56 100 97 78 63 63 72 91 99 100
10 12 13 13 13 14 15 15 15 15 14 12 13 13 27 59 61 44 31 32 37 40 42 33 27 35 45 44 47 43 39 54 32 60 100 99 100 100 81 61 100 98 100
9 10 12 12 12 13 14 14 14 15 15 15 13 14 15 39 61 55 34 34 38 43 41 27 37 52 52 51 48 52 49 51 66 44 66 98 98 99 96 89 91 99 98
9 9 9 10 10 11 12 12 13 14 15 15 15 15 14 16 53 60 37 33 43 47 41 35 38 61 60 66 66 67 66 67 73 65 60 79 91 99 95 86 83 84 82
10 10 10 10 10 11 11 12 13 13 14 15 16 15 14 13 26 59 43 33 44 48 43 44 47 66 65 70 69 75 77 66 72 68 71 57 84 99 99 83 76 71 74
9 11 12 12 12 13 13 13 13 14 14 15 16 16 15 13 14 50 55 36 40 45 40 43 46 60 66 74 74 78 83 92 71 68 78 75 66 98 99 99 84 79 74
8 8 9 10 11 12 12 13 14 14 15 15 16 16 16 15 13 25 66 44 40 48 44 38 43 52 49 50 68 77 78 83 88 93 96 96 86 98 99 99 99 95 95
10 10 10 10 10 11 12 13 14 15 16 16 16 16 16 17 16 21 56 56 38 50 53 54 40 37 40 46 51 52 70 86 84 98 98 100 97 98 98 99 99 98 99
11 11 11 12 12 12 12 12 12 14 15 16 16 17 17 16 16 18 43 53 38 44 51 59 62 58 46 58 57 57 64 67 87 96 98 100 97 98 98 96 96 97 98
12 13 15 16 16 16 16 15 14 13 13 14 15 15 16 17 16 16 28 51 40 40 46 55 52 58 67 67 61 59 60 64 74 80 79 82 91 91 95 97 93 91 88
16 19 22 22 20 18 17 17 17 17 16 16 15 15 15 16 17 16 16 37 57 47 44 45 48 47 49 61 68 67 70 75 67 69 79 88 84 87 87 87 83 76 78
18 23 26 22 18 17 16 17 17 18 19 19 19 18 17 15 16 17 15 14 33 68 64 61 61 63 63 60 57 65 65 72 83 80 78 72 72 78 82 80 78 82 83
Wind_Speed
28 28 29 30 31 32 33 34 34 34 35 35 34 33 34 33 33 34 33 33 32 30 29 30 29 28 26 25 24 22 22 22 22 21 21 20 20 18 17 16 15 15 14
31 31 32 33 34 35 36 37 38 39 39 37 36 38 37 36 36 36 36 35 35 35 31 33 33 31 31 30 29 27 25 25 25 24 23 23 22 21 20 19 17 17 16
33 34 35 35 36 37 39 40 40 41 43 43 42 40 40 41 40 40 38 39 39 39 39 38 36 36 35 34 34 32 29 28 28 27 26 25 24 24 23 22 20 19 18
33 33 33 33 33 35 37 38 39 40 42 43 45 45 45 45 44 44 44 42 42 42 40 39 41 39 40 39 38 36 35 33 30 29 28 28 27 27 26 25 24 22 21
30 30 30 30 31 33 35 36 37 37 38 40 41 44 45 47 47 46 46 46 47 46 45 41 43 42 41 39 40 40 39 38 36 34 32 30 31 30 29 28 28 26 24
26 27 27 29 32 35 36 38 39 38 39 40 41 43 43 44 47 49 48 47 48 49 48 47 45 44 47 43 41 43 43 43 43 40 38 37 34 33 33 32 31 30 29
24 25 28 32 37 37 37 39 42 45 45 44 45 43 42 42 43 43 45 47 46 46 48 51 52 50 49 49 49 43 45 44 47 48 45 41 39 37 35 36 35 33 32
24 27 29 31 31 33 34 35 37 38 39 37 39 43 44 42 40 40 39 39 42 44 46 48 50 53 57 58 56 51 48 41 49 47 47 53 44 41 37 41 40 37 36
25 25 27 29 27 28 31 32 32 35 37 34 33 35 37 39 38 37 35 34 36 37 37 38 41 44 42 47 52 56 56 53 48 49 52 49 53 51 44 47 47 42 40
23 25 25 27 27 31 33 31 27 27 29 30 28 28 30 32 34 37 31 34 36 37 37 38 37 36 30 35 39 43 48 54 54 56 50 54 50 48 53 49 50 48 44
23 24 26 29 28 30 31 29 24 22 23 24 24 23 24 26 28 32 35 30 26 29 35 39 43 43 41 39 42 47 46 47 48 59 62 56 51 49 51 53 54 56 47
24 24 26 26 27 27 28 27 27 24 23 22 20 19 20 22 22 26 29 29 28 22 24 27 31 35 39 38 45 45 42 49 48 45 59 65 60 52 56 55 59 57 57
22 23 24 23 23 25 25 24 22 24 24 24 24 24 23 22 23 24 27 29 31 27 27 26 26 29 31 35 38 42 46 49 51 52 54 51 60 60 66 47 53 55 59
22 22 22 23 22 22 23 23 21 20 20 19 20 22 23 25 26 26 28 31 33 33 29 25 24 27 30 34 37 41 44 46 50 46 51 52 55 56 59 56 53 56 55
22 22 22 22 22 22 22 23 22 21 21 21 21 21 23 23 25 26 27 28 32 33 29 21 26 25 28 31 34 39 43 48 48 51 34 52 46 51 51 56 59 54 60
22 22 22 23 24 23 24 24 24 25 24 23 22 22 23 23 22 22 24 24 26 30 36 26 22 22 24 27 30 34 40 44 52 57 51 43 48 46 52 53 46 51 37
22 23 24 25 25 25 25 26 26 25 25 25 25 25 23 24 23 22 22 22 24 26 32 26 26 23 27 30 32 37 36 37 43 49 59 38 43 47 48 51 41 37 33
24 24 24 25 25 25 25 26 25 26 26 26 25 26 26 26 23 22 22 22 23 23 28 29 23 23 29 28 32 33 32 31 33 36 35 46 42 40 60 56 46 40 34
25 26 27 26 26 26 25 26 27 26 26 26 26 27 25 26 25 23 23 23 23 22 24 27 24 24 26 28 29 26 28 30 31 34 31 34 44 29 40 53 53 48 44
25 26 27 27 27 27 27 27 27 27 27 28 26 26 26 26 25 25 24 24 24 24 23 25 25 23 24 24 25 26 24 23 29 30 31 30 38 32 28 43 45 46 45
26 27 27 28 28 28 28 28 28 28 28 28 28 27 26 27 27 27 26 24 25 25 25 26 25 26 25 24 25 22 22 23 19 22 21 22 26 19 24 31 39 41 39
27 27 28 28 28 29 29 29 28 28 29 28 28 29 27 27 28 28 28 25 25 26 25 25 27 27 25 24 25 26 24 20 18 10 13 13 21 16 13 20 22 20 25
29 29 28 29 29 29 30 31 31 30 30 29 28 30 29 27 27 26 25 23 26 28 27 25 25 27 26 25 24 24 25 23 18 14 13 14 17 16 16 18 17 23 27
29 29 29 30 29 30 30 31 31 32 30 31 30 30 30 31 28 25 23 24 27 29 30 29 28 26 26 26 25 24 22 22 23 21 18 16 15 17 19 20 21 22 23
27 27 28 29 29 30 30 30 31 31 33 32 32 30 31 29 31 26 24 25 29 32 31 31 32 30 29 28 27 26 26 24 23 23 23 23 22 22 25 25 25 26 28
25 26 27 28 27 26 28 29 30 31 31 32 32 32 30 32 29 30 26 25 26 31 34 34 34 34 33 32 31 30 29 28 26 25 25 27 25 25 27 26 25 26 29
Wind_Direction
283 282 281 280 280 279 279 278 276 272 268 268 267 266 267 270 271 271 272 273 273 270 269 270 271 274 275 276 275 274 272 266 261 259 259 259 258 256 254 251 250 250 253
285 284 283 282 280 278 277 276 276 276 274 270 266 266 265 262 267 269 270 271 272 272 267 268 269 268 271 273 273 271 270 269 265 260 256 256 257 257 255 252 251 250 250
286 286 285 284 283 281 279 277 275 274 275 276 273 268 263 262 260 258 264 267 270 272 269 265 263 266 266 268 270 270 268 268 267 262 259 256 255 256 256 254 250 249 248
288 287 286 285 284 283 281 279 278 275 273 271 272 272 270 266 261 259 256 257 261 267 272 271 263 262 264 264 264 265 266 266 265 264 261 259 255 253 254 254 252 247 245
288 289 290 292 292 290 287 283 279 279 278 276 273 270 268 267 267 263 259 256 254 257 262 265 267 263 261 261 262 263 263 263 261 260 259 259 258 255 250 250 251 250 246
289 293 296 297 298 296 293 287 283 284 285 282 279 276 273 269 267 267 265 260 257 255 252 258 261 262 265 258 259 260 263 265 263 260 258 257 256 255 253 248 246 247 247
290 293 299 306 305 302 297 289 284 283 283 281 276 274 275 274 271 270 270 270 267 263 259 256 253 256 259 262 260 259 259 260 264 263 262 258 257 256 257 254 247 245 246
291 300 307 313 315 312 307 300 295 291 288 284 281 279 276 272 274 272 268 267 268 266 264 262 259 258 259 260 260 259 257 261 256 263 258 259 255 250 255 262 253 246 244
295 299 307 317 325 333 329 313 303 294 290 284 279 278 280 278 275 272 272 273 269 266 264 265 266 265 259 262 262 260 259 258 260 259 259 263 251 255 255 252 255 249 246
294 300 304 318 321 330 332 330 316 312 306 299 285 273 276 282 282 280 267 265 268 269 270 269 266 264 266 261 259 259 260 257 254 255 256 257 262 252 254 252 250 248 245
291 305 307 312 318 325 329 336 336 331 326 321 311 298 283 278 281 286 289 280 265 263 264 263 261 261 256 254 253 256 256 257 254 248 255 257 257 260 255 255 248 246 243
294 302 303 308 321 327 330 335 343 342 333 327 321 317 308 302 299 293 293 297 295 284 271 264 263 265 267 265 260 263 259 254 252 252 248 251 255 255 255 256 253 257 253
301 304 303 308 315 319 324 328 336 337 335 330 324 317 311 303 296 292 292 295 293 291 287 280 276 274 272 270 267 263 258 257 256 252 250 250 248 247 250 251 256 254 249
299 298 302 305 308 312 317 320 323 324 324 324 320 312 307 300 293 294 295 296 296 297 295 298 287 284 280 278 275 273 270 264 253 256 254 249 245 244 246 250 250 259 252
293 293 295 298 303 309 311 315 321 322 323 326 328 323 313 304 297 292 289 288 290 294 293 298 291 278 275 273 274 273 268 265 260 248 253 240 242 240 242 241 243 243 247
289 292 295 300 304 308 310 314 317 318 321 321 323 327 326 312 299 289 287 289 288 291 297 313 305 305 300 294 290 284 277 266 255 249 250 253 228 229 234 234 244 243 234
285 288 292 298 301 303 306 309 311 313 316 318 319 321 324 320 309 296 292 293 295 298 301 315 309 311 311 304 301 288 283 269 262 261 254 261 246 233 229 228 235 239 244
289 288 290 294 296 299 301 303 306 310 312 314 314 316 318 319 315 297 290 291 292 295 298 306 309 310 311 312 301 299 285 272 266 265 271 263 253 248 237 235 235 240 241
294 295 295 297 298 300 301 303 305 307 307 308 310 312 311 312 317 301 290 289 287 290 294 297 304 304 305 310 312 314 297 275 274 265 275 266 265 237 236 235 234 235 239
297 297 299 300 302 302 302 302 303 304 304 305 306 307 306 305 303 304 288 282 286 289 288 289 294 297 303 306 314 325 321 294 273 270 273 265 265 268 228 229 230 233 238
296 296 297 297 297 298 299 299 300 301 303 304 304 304 306 305 303 302 287 272 274 281 285 286 288 289 295 303 307 314 319 320 305 268 259 263 252 261 228 224 225 226 232
295 294 294 294 296 297 299 298 298 298 299 300 302 303 303 303 302 302 291 272 265 272 278 281 284 285 289 296 300 303 309 315 329 282 274 264 270 274 260 238 222 221 231
295 294 294 294 294 295 296 296 297 298 299 299 299 300 301 300 301 303 291 269 263 268 275 278 282 283 284 289 293 295 299 302 307 304 274 271 264 267 270 260 252 236 233
296 296 297 297 298 298 298 298 298 298 297 297 298 298 300 303 302 300 292 273 263 265 269 272 277 281 283 282 285 286 287 291 293 290 284 278 276 274 270 266 261 261 252
294 295 297 298 299 300 299 299 298 296 297 297 297 298 297 298 300 299 295 284 271 267 268 269 271 274 276 278 275 279 278 278 278 280 280 278 272 265 266 261 258 256 256
293 295 296 296 297 299 300 300 300 300 299 298 296 296 297 296 296 298 296 290 280 270 270 270 270 271 270 271 272 272 273 275 272 271 273 273 271 272 267 266 267 267 262